weather.gov     
National Weather Service

Regional Weather Roundup
NWS Homepage
This page is being discontinued on March 12, 2014.
The same data is available at this site. Please update your bookmarks.
Thank you, and we apologize for the inconvenience.
Please send an email to SR-SRH.Webmaster@noaa.gov with any concerns.


Current Version
Previous Version:    01  02  03  04  05  06  07  08  09  10  11  12  13  14  15  16  17  18  19  20  21  22  23  24  25  26  27  28  29  30  
   31  32  33  34  35  36  37  38  39  40  41  42  43  44  45  46  47  48  49  50  51  52  53  54  
[Printable]
759
ASUS43 KGLD 201759
RWRGLD

GOODLAND FORECAST AREA HOURLY WEATHER ROUNDUP
NATIONAL WEATHER SERVICE GOODLAND KS
1100 AM MST SAT DEC 20 2014

...OFFICIAL OBSERVATIONS...

CITY           SKY/WX    TMP DP  RH WIND       PRES   REMARKS
GOODLAND KS    MOSUNNY   50  29  44 NW6       30.02F
HILL CITY KS   SUNNY     46  32  58 VRB5      30.04F
IMPERIAL NEB   CLOUDY    35  25  66 W8        30.00F
MCCOOK NEB     PTSUNNY   36  26  67 W8        30.02F
AKRON CO       CLOUDY    34  22  61 NW8       30.01F
BURLINGTON CO  MOSUNNY   45  27  49 W10       30.01F
LIMON CO       PTSUNNY   47  18  31 S5        30.01F
$$

...UNOFFICIAL OBSERVATIONS...

CITY           SKY/WX    TMP DP  RH WIND       PRES   REMARKS
COLBY KS       SUNNY     48  37  66 W10       30.02S
GOVE KS          N/A     47  32  56 MISG        N/A
NORTON KS      SUNNY     43  28  56 S5        30.03S
SHARON SPRINGS   N/A     45  36  71 W5          N/A
TRIBUNE KS     MOSUNNY   48  37  66 SW3       30.04F
KIT CARSON CO    N/A     39  33  78 MISG        N/A
YUMA CO          N/A     34  26  72 NW7         N/A
$$




U.S. Dept. of Commerce
NOAA National Weather Service
1325 East West Highway
Silver Spring, MD 20910
E-mail: w-nws.webmaster@noaa.gov
Page last modified: May 16, 2007
NATIONAL WEATHER SERVICE: for Safety, for Work, for Fun - FOR LIFE